Groton, CT

9:57 PM EST on January 23, 2018 (GMT -0500)
Groton-New London

Weather History for KGON - May, 2013

Change the Weather History Date:

Wednesday, May 1, 2013

  Actual Average Record
Temperature  
Mean Temperature 48 °F -  
Max Temperature 60 °F 63 °F 80 °F (1957)
Min Temperature 36 °F 43 °F 30 °F (2008)
Degree Days  
Heating Degree Days 18    
Moisture  
Dew Point 39 °F    
Average Humidity 70    
Maximum Humidity 93    
Minimum Humidity 54    
Precipitation  
Precipitation 0.00 in - - ()
Sea Level Pressure  
Sea Level Pressure 30.44 in    
Wind  
Wind Speed 5 mph (ENE)    
Max Wind Speed 14 mph    
Max Gust Speed -    
Visibility 10 miles    
Events      
Averages and records for this station are not official NWS values.
T = Trace of Precipitation, MM = Missing Value Source: NWS Daily Summary

Daily Weather History Graph

Daily Weather History Graph

Search for Another Location

Airport or City:

Trip Planner

Search our weather history database for the weather conditions in past years. The results will help you decide how hot, cold, wet, or windy it might be!

Date:

Astronomy

May. 01, 2013 Rise Set
Actual Time 5:45 AM EDT 7:45 PM EDT
Civil Twilight 5:15 AM EDT 8:16 PM EDT
Nautical Twilight 4:38 AM EDT 8:52 PM EDT
Astronomical Twilight 3:58 AM EDT 9:33 PM EDT
Moon 12:53 AM EDT (5/1) 11:20 AM EDT (5/1)
Length of Visible Light 15h 00m
Length of Day
14h 00m
Waning Gibbous, 59% of the Moon is Illuminated
May 1
Waning Gibbous
May 2
Last Quarter
May 9
New
May 18
First Quarter
May 25
Full

Hourly Weather History & Observations

Time (EDT) Temp. Windchill Dew Point Humidity Pressure Visibility Wind Dir Wind Speed Gust Speed Precip Events Conditions
12:56 AM 39.2 °F - 30.2 °F 70% 30.35 in 10.0 mi Calm Calm - N/A   Clear
1:56 AM 36.0 °F 32.1 °F 30.0 °F 79% 30.36 in 10.0 mi North 4.6 mph - N/A   Clear
2:56 AM 37.9 °F 35.5 °F 28.9 °F 70% 30.37 in 10.0 mi NNW 3.5 mph - N/A   Clear
3:56 AM 39.0 °F 34.8 °F 28.0 °F 65% 30.38 in 10.0 mi North 5.8 mph - N/A   Clear
4:56 AM 37.9 °F 35.5 °F 28.0 °F 68% 30.39 in 10.0 mi North 3.5 mph - N/A   Clear
5:56 AM 39.9 °F 35.1 °F 28.9 °F 65% 30.41 in 9.0 mi NNE 6.9 mph - N/A   Clear
6:56 AM 44.1 °F 39.5 °F 32.0 °F 63% 30.43 in 9.0 mi North 8.1 mph - N/A   Clear
7:56 AM 51.1 °F - 35.1 °F 54% 30.44 in 10.0 mi North 4.6 mph - N/A   Clear
8:56 AM 57.9 °F - 42.1 °F 56% 30.44 in 10.0 mi North 5.8 mph - N/A   Clear
9:56 AM 59.0 °F - 45.0 °F 60% 30.45 in 10.0 mi SE 9.2 mph - N/A   Clear
10:56 AM 57.9 °F - 44.1 °F 60% 30.46 in 10.0 mi SE 12.7 mph - N/A   Clear
11:56 AM 57.9 °F - 45.0 °F 62% 30.46 in 10.0 mi SE 13.8 mph - N/A   Clear
12:56 PM 59.0 °F - 46.0 °F 62% 30.45 in 10.0 mi SE 9.2 mph - N/A   Clear
1:56 PM 59.0 °F - 46.0 °F 62% 30.44 in 10.0 mi SE 12.7 mph - N/A   Clear
2:56 PM 55.9 °F - 46.9 °F 72% 30.45 in 10.0 mi SSE 11.5 mph - N/A   Clear
3:56 PM 57.0 °F - 46.0 °F 67% 30.45 in 10.0 mi SE 10.4 mph - N/A   Clear
4:56 PM 55.9 °F - 45.0 °F 67% 30.45 in 10.0 mi SE 8.1 mph - N/A   Clear
5:56 PM 53.1 °F - 44.1 °F 71% 30.45 in 10.0 mi SSE 6.9 mph - N/A   Clear
6:56 PM 51.8 °F - 44.6 °F 76% 30.46 in 10.0 mi Calm Calm - N/A   Clear
7:56 PM 50.0 °F - 42.1 °F 74% 30.47 in 10.0 mi Calm Calm - N/A   Clear
8:56 PM 48.0 °F - 42.1 °F 80% 30.48 in 10.0 mi Calm Calm - N/A   Clear
9:56 PM 45.0 °F - 42.1 °F 90% 30.48 in 10.0 mi Calm Calm - N/A   Clear
10:56 PM 44.1 °F 42.5 °F 41.0 °F 89% 30.47 in 10.0 mi North 3.5 mph - N/A   Clear
11:56 PM 43.0 °F - 41.0 °F 93% 30.47 in 9.0 mi Calm Calm - N/A   Clear